User: anonymous   Login
Location: Unspecified
(0.0000°N, 0.0000°E)
Time: 07:08:13
(UTC+00:00)
Language:

NOSS 3-2 (C) - Orbit

View from above orbital plane
View from above orbital plane
View from above satellite
View from above satellite

Ground track
Ground track

The orbit data is extracted from the following two-line orbital elements,

1 28097U 03054C   18214.39770942 0.00000000  00000-0  00000-0 0    08
2 28097  63.4175 347.5068 0341000 357.9108   2.0892 13.40747162    04
Epoch (UTC): 02 August 2018 09:32:42
Eccentricity: 0.0341000
inclination: 63.4175°
perigee height: 851 km
apogee height: 1362 km
right ascension of ascending node: 347.5068°
argument of perigee: 357.9108°
revolutions per day: 13.40747162
mean anomaly at epoch: 2.0892°
orbit number at epoch: 0

The dashed part of the orbit path shows where the satellite is in the earth's shadow,  

DLR